Time,TemperatureF,DewpointF,PressureIn,WindDirection,WindDirectionDegrees,WindSpeedMPH,WindSpeedGustMPH,Humidity,HourlyPrecipIn,Conditions,Clouds,dailyrainin,SolarRadiationWatts/m^2,SoftwareType,DateUTC
2015-05-28 00:00:00,61.3,53.0,29.97,WNW,283,2.0,-999.0,74,0.00,,,0.00,0,WeatherHawk,2015-05-28 07:00:00,
2015-05-28 00:05:00,61.3,53.0,29.97,North,2,1.0,-999.0,74,0.00,,,0.00,0,WeatherHawk,2015-05-28 07:05:00,
2015-05-28 00:10:00,61.2,53.2,29.97,North,351,1.0,-999.0,75,0.00,,,0.00,0,WeatherHawk,2015-05-28 07:10:00,
2015-05-28 00:15:00,61.2,53.2,29.96,North,349,2.0,-999.0,75,0.00,,,0.00,0,WeatherHawk,2015-05-28 07:15:00,
2015-05-28 00:20:00,61.2,53.2,29.96,NW,323,1.0,-999.0,75,0.00,,,0.00,0,WeatherHawk,2015-05-28 07:20:00,
2015-05-28 00:25:00,61.2,53.2,29.96,West,278,1.0,-999.0,75,0.00,,,0.00,0,WeatherHawk,2015-05-28 07:25:00,
2015-05-28 00:30:00,61.2,53.2,29.96,NW,306,1.0,-999.0,75,0.00,,,0.00,2,WeatherHawk,2015-05-28 07:30:00,
2015-05-28 00:35:00,61.2,53.2,29.96,NW,314,2.0,-999.0,75,0.00,,,0.00,0,WeatherHawk,2015-05-28 07:35:00,
2015-05-28 00:40:00,61.0,53.0,29.96,West,272,1.0,-999.0,75,0.00,,,0.00,0,WeatherHawk,2015-05-28 07:40:00,
2015-05-28 00:45:00,61.0,53.0,29.96,NNW,343,2.0,-999.0,75,0.00,,,0.00,0,WeatherHawk,2015-05-28 07:45:00,
2015-05-28 00:50:00,61.0,53.0,29.96,NNW,337,1.0,-999.0,75,0.00,,,0.00,0,WeatherHawk,2015-05-28 07:50:00,
2015-05-28 00:55:00,61.0,53.4,29.96,North,353,2.0,-999.0,76,0.00,,,0.00,0,WeatherHawk,2015-05-28 07:55:00,
2015-05-28 01:00:00,60.8,52.8,29.96,East,86,2.0,-999.0,75,0.00,,,0.00,0,WeatherHawk,2015-05-28 08:00:00,
2015-05-28 01:05:00,60.8,53.2,29.96,NNW,334,2.0,-999.0,76,0.00,,,0.00,0,WeatherHawk,2015-05-28 08:05:00,
2015-05-28 01:10:00,60.6,53.0,29.96,North,355,2.0,-999.0,76,0.00,,,0.00,0,WeatherHawk,2015-05-28 08:10:00,
2015-05-28 01:15:00,60.6,53.4,29.96,NNW,327,3.0,-999.0,77,0.00,,,0.00,0,WeatherHawk,2015-05-28 08:15:00,
2015-05-28 01:20:00,60.4,53.2,29.96,NNW,340,3.0,-999.0,77,0.00,,,0.00,0,WeatherHawk,2015-05-28 08:20:00,
2015-05-28 01:25:00,60.4,53.2,29.95,NNE,25,3.0,-999.0,77,0.00,,,0.00,0,WeatherHawk,2015-05-28 08:25:00,
2015-05-28 01:30:00,60.3,53.0,29.95,NNW,329,1.0,-999.0,77,0.00,,,0.00,0,WeatherHawk,2015-05-28 08:30:00,
2015-05-28 01:35:00,60.3,53.0,29.95,NNE,30,3.0,-999.0,77,0.00,,,0.00,1,WeatherHawk,2015-05-28 08:35:00,
2015-05-28 01:40:00,60.3,53.4,29.95,East,84,1.0,-999.0,78,0.00,,,0.00,1,WeatherHawk,2015-05-28 08:40:00,
2015-05-28 01:45:00,60.3,53.4,29.95,East,80,1.0,-999.0,78,0.00,,,0.00,0,WeatherHawk,2015-05-28 08:45:00,
2015-05-28 01:50:00,60.3,53.4,29.95,NNE,29,1.0,-999.0,78,0.00,,,0.00,0,WeatherHawk,2015-05-28 08:50:00,
2015-05-28 01:55:00,60.4,53.5,29.95,WNW,294,1.0,-999.0,78,0.00,,,0.00,0,WeatherHawk,2015-05-28 08:55:00,
2015-05-28 02:00:00,60.4,53.2,29.95,NNE,30,1.0,-999.0,77,0.00,,,0.00,0,WeatherHawk,2015-05-28 09:00:00,
2015-05-28 02:05:00,60.4,53.2,29.95,East,90,1.0,-999.0,77,0.00,,,0.00,0,WeatherHawk,2015-05-28 09:05:00,
2015-05-28 02:10:00,60.4,53.2,29.95,ENE,72,2.0,-999.0,77,0.00,,,0.00,0,WeatherHawk,2015-05-28 09:10:00,
2015-05-28 02:15:00,60.4,53.5,29.95,NNE,31,2.0,-999.0,78,0.00,,,0.00,0,WeatherHawk,2015-05-28 09:15:00,
2015-05-28 02:20:00,60.4,53.5,29.94,NW,318,1.0,-999.0,78,0.00,,,0.00,0,WeatherHawk,2015-05-28 09:20:00,
2015-05-28 02:25:00,60.4,53.2,29.94,North,1,3.0,-999.0,77,0.00,,,0.00,1,WeatherHawk,2015-05-28 09:25:00,
2015-05-28 02:30:00,60.3,53.4,29.94,ENE,59,3.0,-999.0,78,0.00,,,0.00,1,WeatherHawk,2015-05-28 09:30:00,
2015-05-28 02:35:00,60.3,53.4,29.94,NNE,20,1.0,-999.0,78,0.00,,,0.00,0,WeatherHawk,2015-05-28 09:35:00,
2015-05-28 02:40:00,60.3,53.4,29.94,SE,125,2.0,-999.0,78,0.00,,,0.00,0,WeatherHawk,2015-05-28 09:40:00,
2015-05-28 02:45:00,60.3,53.4,29.94,North,11,0.0,-999.0,78,0.00,,,0.00,0,WeatherHawk,2015-05-28 09:45:00,
2015-05-28 02:50:00,60.4,53.5,29.94,NNW,333,1.0,-999.0,78,0.00,,,0.00,0,WeatherHawk,2015-05-28 09:50:00,
2015-05-28 02:55:00,60.4,53.2,29.94,NNW,342,2.0,-999.0,77,0.00,,,0.00,0,WeatherHawk,2015-05-28 09:55:00,
2015-05-28 03:00:00,60.4,53.2,29.93,WNW,288,3.0,-999.0,77,0.00,,,0.00,1,WeatherHawk,2015-05-28 10:00:00,
2015-05-28 03:05:00,60.3,53.0,29.93,NNW,347,4.0,-999.0,77,0.00,,,0.00,2,WeatherHawk,2015-05-28 10:05:00,
2015-05-28 03:10:00,60.3,53.4,29.93,WSW,252,3.0,-999.0,78,0.00,,,0.00,0,WeatherHawk,2015-05-28 10:10:00,
2015-05-28 03:15:00,60.3,53.4,29.93,WSW,255,2.0,-999.0,78,0.00,,,0.00,0,WeatherHawk,2015-05-28 10:15:00,
2015-05-28 03:20:00,60.3,53.4,29.93,WSW,256,3.0,-999.0,78,0.00,,,0.00,0,WeatherHawk,2015-05-28 10:20:00,
2015-05-28 03:25:00,60.3,53.4,29.94,WNW,302,2.0,-999.0,78,0.00,,,0.00,0,WeatherHawk,2015-05-28 10:25:00,
2015-05-28 03:30:00,60.3,53.4,29.94,SE,132,0.0,-999.0,78,0.00,,,0.00,0,WeatherHawk,2015-05-28 10:30:00,
2015-05-28 03:35:00,60.3,53.4,29.94,SW,225,1.0,-999.0,78,0.00,,,0.00,0,WeatherHawk,2015-05-28 10:35:00,
2015-05-28 03:40:00,60.3,53.4,29.93,WNW,292,3.0,-999.0,78,0.00,,,0.00,0,WeatherHawk,2015-05-28 10:40:00,
2015-05-28 03:45:00,60.3,53.4,29.93,NW,324,5.0,-999.0,78,0.00,,,0.00,2,WeatherHawk,2015-05-28 10:45:00,
2015-05-28 03:50:00,60.1,53.2,29.93,SE,132,0.0,-999.0,78,0.00,,,0.00,0,WeatherHawk,2015-05-28 10:50:00,
2015-05-28 03:55:00,60.1,53.2,29.93,NNW,332,2.0,-999.0,78,0.00,,,0.00,0,WeatherHawk,2015-05-28 10:55:00,
2015-05-28 04:00:00,60.1,53.5,29.94,WSW,254,1.0,-999.0,79,0.00,,,0.00,0,WeatherHawk,2015-05-28 11:00:00,
2015-05-28 04:05:00,60.1,53.5,29.94,WNW,285,1.0,-999.0,79,0.00,,,0.00,1,WeatherHawk,2015-05-28 11:05:00,
2015-05-28 04:10:00,60.1,53.5,29.94,North,10,2.0,-999.0,79,0.00,,,0.00,2,WeatherHawk,2015-05-28 11:10:00,
2015-05-28 04:15:00,60.1,53.5,29.94,North,4,2.0,-999.0,79,0.00,,,0.00,0,WeatherHawk,2015-05-28 11:15:00,
2015-05-28 04:20:00,59.9,53.4,29.94,North,8,2.0,-999.0,79,0.00,,,0.00,0,WeatherHawk,2015-05-28 11:20:00,
2015-05-28 04:25:00,59.9,53.7,29.94,NW,318,1.0,-999.0,80,0.00,,,0.00,0,WeatherHawk,2015-05-28 11:25:00,
2015-05-28 04:30:00,59.7,53.5,29.94,North,0,1.0,-999.0,80,0.00,,,0.00,0,WeatherHawk,2015-05-28 11:30:00,
2015-05-28 04:35:00,59.7,53.5,29.94,ENE,77,2.0,-999.0,80,0.00,,,0.00,0,WeatherHawk,2015-05-28 11:35:00,
2015-05-28 04:40:00,59.7,53.5,29.94,North,3,1.0,-999.0,80,0.00,,,0.00,0,WeatherHawk,2015-05-28 11:40:00,
2015-05-28 04:45:00,59.7,53.5,29.94,North,1,4.0,-999.0,80,0.00,,,0.00,0,WeatherHawk,2015-05-28 11:45:00,
2015-05-28 04:50:00,59.7,53.5,29.94,NW,317,2.0,-999.0,80,0.00,,,0.00,0,WeatherHawk,2015-05-28 11:50:00,
2015-05-28 04:55:00,59.7,53.5,29.94,North,3,3.0,-999.0,80,0.00,,,0.00,1,WeatherHawk,2015-05-28 11:55:00,
2015-05-28 05:00:00,59.5,53.4,29.94,NE,46,2.0,-999.0,80,0.00,,,0.00,0,WeatherHawk,2015-05-28 12:00:00,
2015-05-28 05:05:00,59.5,53.4,29.94,ENE,74,1.0,-999.0,80,0.00,,,0.00,0,WeatherHawk,2015-05-28 12:05:00,
2015-05-28 05:10:00,59.5,53.4,29.94,ENE,64,3.0,-999.0,80,0.00,,,0.00,0,WeatherHawk,2015-05-28 12:10:00,
2015-05-28 05:15:00,59.5,53.7,29.94,ENE,77,3.0,-999.0,81,0.00,,,0.00,0,WeatherHawk,2015-05-28 12:15:00,
2015-05-28 05:20:00,59.5,53.7,29.94,ENE,60,3.0,-999.0,81,0.00,,,0.00,1,WeatherHawk,2015-05-28 12:20:00,
2015-05-28 05:25:00,59.5,53.7,29.95,NE,47,3.0,-999.0,81,0.00,,,0.00,0,WeatherHawk,2015-05-28 12:25:00,
2015-05-28 05:30:00,59.5,53.7,29.95,East,86,2.0,-999.0,81,0.00,,,0.00,0,WeatherHawk,2015-05-28 12:30:00,
2015-05-28 05:35:00,59.5,53.7,29.95,NNE,30,2.0,-999.0,81,0.00,,,0.00,0,WeatherHawk,2015-05-28 12:35:00,
2015-05-28 05:40:00,59.5,53.7,29.95,NE,34,1.0,-999.0,81,0.00,,,0.00,0,WeatherHawk,2015-05-28 12:40:00,
2015-05-28 05:45:00,59.5,53.7,29.95,ENE,58,1.0,-999.0,81,0.00,,,0.00,1,WeatherHawk,2015-05-28 12:45:00,
2015-05-28 05:50:00,59.5,53.7,29.95,East,81,3.0,-999.0,81,0.00,,,0.00,1,WeatherHawk,2015-05-28 12:50:00,
2015-05-28 05:55:00,59.5,53.7,29.95,East,81,2.0,-999.0,81,0.00,,,0.00,2,WeatherHawk,2015-05-28 12:55:00,
2015-05-28 06:00:00,59.5,53.7,29.95,East,100,1.0,-999.0,81,0.00,,,0.00,4,WeatherHawk,2015-05-28 13:00:00,
2015-05-28 06:05:00,59.5,53.7,29.95,NE,56,2.0,-999.0,81,0.00,,,0.00,6,WeatherHawk,2015-05-28 13:05:00,
2015-05-28 06:10:00,59.5,53.7,29.95,North,2,2.0,-999.0,81,0.00,,,0.00,9,WeatherHawk,2015-05-28 13:10:00,
2015-05-28 06:15:00,59.7,53.9,29.95,NNW,348,1.0,-999.0,81,0.00,,,0.00,10,WeatherHawk,2015-05-28 13:15:00,
2015-05-28 06:20:00,59.7,53.9,29.96,WNW,288,0.0,-999.0,81,0.00,,,0.00,12,WeatherHawk,2015-05-28 13:20:00,
2015-05-28 06:25:00,59.7,53.9,29.96,East,101,1.0,-999.0,81,0.00,,,0.00,13,WeatherHawk,2015-05-28 13:25:00,
2015-05-28 06:30:00,59.7,53.5,29.96,North,358,2.0,-999.0,80,0.00,,,0.00,15,WeatherHawk,2015-05-28 13:30:00,
2015-05-28 06:35:00,59.9,54.1,29.97,North,1,2.0,-999.0,81,0.00,,,0.00,18,WeatherHawk,2015-05-28 13:35:00,
2015-05-28 06:40:00,59.9,53.7,29.97,NNE,16,1.0,-999.0,80,0.00,,,0.00,21,WeatherHawk,2015-05-28 13:40:00,
2015-05-28 06:45:00,60.1,54.2,29.97,NNE,19,1.0,-999.0,81,0.00,,,0.00,23,WeatherHawk,2015-05-28 13:45:00,
2015-05-28 06:50:00,60.1,54.2,29.97,ENE,77,1.0,-999.0,81,0.00,,,0.00,24,WeatherHawk,2015-05-28 13:50:00,
2015-05-28 06:55:00,60.1,54.2,29.97,NNW,338,1.0,-999.0,81,0.00,,,0.00,28,WeatherHawk,2015-05-28 13:55:00,
2015-05-28 07:00:00,60.1,54.2,29.97,North,4,1.0,-999.0,81,0.00,,,0.00,33,WeatherHawk,2015-05-28 14:00:00,
2015-05-28 07:05:00,60.1,54.2,29.97,NE,56,1.0,-999.0,81,0.00,,,0.00,32,WeatherHawk,2015-05-28 14:05:00,
2015-05-28 07:10:00,60.1,54.2,29.97,NNW,338,2.0,-999.0,81,0.00,,,0.00,37,WeatherHawk,2015-05-28 14:10:00,
2015-05-28 07:15:00,60.3,54.4,29.97,NE,39,2.0,-999.0,81,0.00,,,0.00,36,WeatherHawk,2015-05-28 14:15:00,
2015-05-28 07:20:00,60.1,54.2,29.97,North,355,2.0,-999.0,81,0.00,,,0.00,50,WeatherHawk,2015-05-28 14:20:00,
2015-05-28 07:25:00,60.1,54.2,29.97,East,83,2.0,-999.0,81,0.00,,,0.00,46,WeatherHawk,2015-05-28 14:25:00,
2015-05-28 07:30:00,60.1,54.2,29.97,East,80,2.0,-999.0,81,0.00,,,0.00,52,WeatherHawk,2015-05-28 14:30:00,
2015-05-28 07:35:00,60.1,54.2,29.97,ENE,73,3.0,-999.0,81,0.00,,,0.00,56,WeatherHawk,2015-05-28 14:35:00,
2015-05-28 07:40:00,60.1,54.6,29.97,ENE,69,1.0,-999.0,82,0.00,,,0.00,60,WeatherHawk,2015-05-28 14:40:00,
2015-05-28 07:45:00,60.3,54.7,29.98,SSE,167,0.0,-999.0,82,0.00,,,0.00,71,WeatherHawk,2015-05-28 14:45:00,
2015-05-28 07:50:00,60.3,54.4,29.98,ENE,76,2.0,-999.0,81,0.00,,,0.00,75,WeatherHawk,2015-05-28 14:50:00,
2015-05-28 07:55:00,60.4,54.6,29.98,NNE,28,3.0,-999.0,81,0.00,,,0.00,74,WeatherHawk,2015-05-28 14:55:00,
2015-05-28 08:00:00,60.4,54.6,29.98,NW,317,1.0,-999.0,81,0.00,,,0.00,89,WeatherHawk,2015-05-28 15:00:00,
2015-05-28 08:05:00,60.8,54.9,29.98,North,7,2.0,-999.0,81,0.00,,,0.00,89,WeatherHawk,2015-05-28 15:05:00,
2015-05-28 08:10:00,60.8,54.6,29.98,NE,34,2.0,-999.0,80,0.00,,,0.00,92,WeatherHawk,2015-05-28 15:10:00,
2015-05-28 08:15:00,61.0,54.8,29.98,NNW,344,2.0,-999.0,80,0.00,,,0.00,97,WeatherHawk,2015-05-28 15:15:00,
2015-05-28 08:20:00,61.2,54.6,29.98,North,2,4.0,-999.0,79,0.00,,,0.00,94,WeatherHawk,2015-05-28 15:20:00,
2015-05-28 08:25:00,61.2,54.6,29.98,NNW,330,2.0,-999.0,79,0.00,,,0.00,94,WeatherHawk,2015-05-28 15:25:00,
2015-05-28 08:30:00,61.3,54.4,29.98,NW,319,4.0,-999.0,78,0.00,,,0.00,93,WeatherHawk,2015-05-28 15:30:00,
2015-05-28 08:35:00,61.2,54.2,29.98,NNW,330,2.0,-999.0,78,0.00,,,0.00,92,WeatherHawk,2015-05-28 15:35:00,
2015-05-28 08:40:00,61.3,54.4,29.98,NNE,13,2.0,-999.0,78,0.00,,,0.00,95,WeatherHawk,2015-05-28 15:40:00,
2015-05-28 08:45:00,61.5,54.6,29.98,NNW,339,4.0,-999.0,78,0.00,,,0.00,115,WeatherHawk,2015-05-28 15:45:00,
2015-05-28 08:50:00,61.7,54.4,29.98,West,273,0.0,-999.0,77,0.00,,,0.00,124,WeatherHawk,2015-05-28 15:50:00,
2015-05-28 08:55:00,61.7,54.1,29.98,North,359,4.0,-999.0,76,0.00,,,0.00,119,WeatherHawk,2015-05-28 15:55:00,
2015-05-28 09:00:00,61.7,54.4,29.98,North,0,4.0,-999.0,77,0.00,,,0.00,118,WeatherHawk,2015-05-28 16:00:00,
2015-05-28 09:10:00,61.7,54.4,29.98,West,276,1.0,-999.0,77,0.00,,,0.00,127,WeatherHawk,2015-05-28 16:10:00,
2015-05-28 09:15:00,61.9,54.6,29.98,NNW,343,2.0,-999.0,77,0.00,,,0.00,132,WeatherHawk,2015-05-28 16:15:00,
2015-05-28 09:20:00,62.1,54.8,29.98,NW,313,2.0,-999.0,77,0.00,,,0.00,133,WeatherHawk,2015-05-28 16:20:00,
2015-05-28 09:25:00,62.4,54.7,29.98,WNW,288,5.0,-999.0,76,0.00,,,0.00,126,WeatherHawk,2015-05-28 16:25:00,
2015-05-28 09:30:00,62.6,54.6,29.98,North,355,2.0,-999.0,75,0.00,,,0.00,131,WeatherHawk,2015-05-28 16:30:00,
2015-05-28 09:35:00,62.4,54.7,29.98,NW,312,1.0,-999.0,76,0.00,,,0.00,139,WeatherHawk,2015-05-28 16:35:00,
2015-05-28 09:40:00,62.4,54.4,29.98,WNW,290,4.0,-999.0,75,0.00,,,0.00,143,WeatherHawk,2015-05-28 16:40:00,
2015-05-28 09:45:00,62.4,54.7,29.98,WNW,287,3.0,-999.0,76,0.00,,,0.00,150,WeatherHawk,2015-05-28 16:45:00,
2015-05-28 09:50:00,62.6,54.6,29.98,NW,320,2.0,-999.0,75,0.00,,,0.00,150,WeatherHawk,2015-05-28 16:50:00,
2015-05-28 09:55:00,62.6,54.6,29.99,SW,217,0.0,-999.0,75,0.00,,,0.00,144,WeatherHawk,2015-05-28 16:55:00,
2015-05-28 10:05:00,63.0,54.5,29.98,WNW,300,2.0,-999.0,74,0.00,,,0.00,150,WeatherHawk,2015-05-28 17:05:00,
2015-05-28 10:10:00,63.1,54.7,29.98,NNW,347,6.0,-999.0,74,0.00,,,0.00,164,WeatherHawk,2015-05-28 17:10:00,